Find Starlink 5475

NORAD ID: 55661 Int'l Des: 2023-021 Owner: SPXS Country: US Constellation: starlink operational
LEOCIRCULAR

Current View

Loading 3D Globe...

About Starlink 5475

Description loading...

Upcoming Passes

Passes for default location (London). Set your location on the main map for personalized predictions.

Altitude History

Loading altitude history...

Two-Line Element Set

1 55661U 23021AK 26145.93079006 .00000594 00000-0 57570-4 0 9999
2 55661 69.9996 329.7380 0002611 270.2163 89.8697 14.98334498180858
Epoch: May 25, 2026 • Age: 13 hours

Current Status

Altitude 585.1 km
Velocity 7.57 km/s
Sub-Earth Point 68.93°N, 20.46°E
Launch Date Feb 17, 2023
Age 3.2 years
Type internet

Technical Details

Classification Payload
Mass 305.00 kg
Dry Mass 290.00 kg
Total Mass 305.00 kg
Length 0.20 m
Diameter 2.80 m
Span 9.00 m
Shape Box + pan
Manufacturer SPXS
Bus Type Starlink
Phase Status In Orbit
Owner/State SPXS/US

Most Searched